Flight Track Log - Related Links

Times and Time Zones

All times are in EDT time to prevent confusion due to time zone crossing. See the BVN8754 flight status page for this flight to view local times or setup timezone preferences in your user account.

Time Position Orientation Groundspeed Altitude Reporting Facility
EDT Latitude Longitude Course Direction KTS MPH feet Rate Location/Type
Sat 08:32:17 AM 30.2156 -97.7731 327° Northwest 146 168 3,700  Level Fort Worth Center
Sat 08:33:18 AM 30.2506 -97.7969 329° Northwest 145 167 4,800 984 Climbing Houston Center
Sat 08:34:19 AM 30.2803 -97.8208 325° Northwest 137 158 5,700 634 Climbing Houston Center
Sat 08:35:21 AM 30.3136 -97.8439 329° Northwest 137 158 6,100 146 Climbing Houston Center
Sat 08:36:00 AM 30.3931 -97.8287 330° Northwest  Level FlightAware Approximate
Sat 08:36:22 AM 30.3539 -97.8739 327° Northwest 160 184 6,000  Level Houston Center
Sat 08:37:00 AM 30.4287 -97.8548 327° Northwest  Level FlightAware Approximate
Sat 08:37:23 AM 30.3958 -97.9044 328° Northwest 171 197 6,000  Level Houston Center
Sat 08:38:24 AM 30.4450 -97.9411 327° Northwest 173 199 6,000  Level Houston Center
Sat 08:39:26 AM 30.4853 -97.9717 327° Northwest 173 199 6,000  Level Houston Center
Sat 08:40:27 AM 30.5261 -98.0019 327° Northwest 174 200 6,000  Level Houston Center
Sat 08:41:28 AM 30.5669 -98.0325 327° Northwest 174 200 6,000  Level Houston Center
Sat 08:42:29 AM 30.6086 -98.0633 328° Northwest 174 200 6,000  Level Houston Center
Sat 08:43:31 AM 30.6494 -98.0947 327° Northwest 174 200 6,000  Level Houston Center
Sat 08:44:32 AM 30.6906 -98.1264 326° Northwest 174 200 6,000  Level Houston Center
Sat 08:45:33 AM 30.7322 -98.1556 329° Northwest 174 200 6,000  Level Houston Center
Sat 08:46:35 AM 30.7728 -98.1861 327° Northwest 174 200 6,000  Level Houston Center
Sat 08:47:36 AM 30.8133 -98.2164 327° Northwest 174 200 6,000  Level Houston Center
Sat 08:48:37 AM 30.8619 -98.2536 327° Northwest 174 200 6,000  Level Houston Center
Sat 08:49:39 AM 30.9019 -98.2833 327° Northwest 174 200 6,000  Level Houston Center
Sat 08:50:37 AM 30.9347 -98.3083 327° Northwest 174 200 6,000  Level Fort Worth Center
Sat 08:51:38 AM 30.9833 -98.3450 327° Northwest 174 200 6,000  Level Fort Worth Center
Sat 08:52:39 AM 31.0244 -98.3767 327° Northwest 174 200 6,000  Level Fort Worth Center
Sat 08:53:41 AM 31.0653 -98.4061 328° Northwest 174 200 6,000  Level Fort Worth Center
Sat 08:54:45 AM 31.1056 -98.4358 328° Northwest 174 200 6,000  Level Houston Center
Sat 08:55:43 AM 31.1478 -98.4681 327° Northwest 175 201 6,000  Level Fort Worth Center
Sat 08:56:45 AM 31.1883 -98.4992 327° Northwest 175 201 6,000  Level Fort Worth Center
Sat 08:57:46 AM 31.2303 -98.5300 328° Northwest 175 201 6,000  Level Fort Worth Center
Sat 08:58:47 AM 31.2694 -98.5614 326° Northwest 175 201 6,000  Level Fort Worth Center
Sat 08:59:49 AM 31.3106 -98.5925 327° Northwest 175 201 6,000  Level Fort Worth Center
Sat 09:00:50 AM 31.3608 -98.6308 327° Northwest 178 205 6,000  Level Fort Worth Center
Sat 09:01:51 AM 31.4039 -98.6611 329° Northwest 178 205 6,000  Level Fort Worth Center
Sat 09:02:53 AM 31.4453 -98.6928 327° Northwest 178 205 6,000  Level Fort Worth Center

Login

Don't have an account? Register now (free) for customized features, flight alerts, and more!